FW1757 Weather Reports


time (UTC)temp
C
wind
direction
speed
KPH
gust
KPH
rain 1hr
cm
rain 24hr
cm
rain mn
cm
humidity
%
barometer
mb
20260506201537 20 248 0.0 0.0 0.00 0.00 0.00 55 1015.8
20260506201036 20 255 0.0 0.0 0.00 0.00 0.00 55 1015.9
20260506200535 20 258 0.0 0.0 0.00 0.00 0.00 56 1015.8
20260506200035 20 272 0.0 0.0 0.00 0.00 0.00 57 1015.7
20260506195534 20 298 0.0 0.0 0.00 0.00 0.00 57 1015.7
20260506195037 20 257 0.0 0.0 0.00 0.00 0.00 57 1015.4
20260506194537 20 291 0.0 0.0 0.00 0.00 0.00 56 1015.5
20260506194031 20 286 0.0 0.0 0.00 0.00 0.00 58 1015.4
20260506193530 20 283 0.0 0.0 0.00 0.00 0.00 58 1015.5
20260506193032 19 286 0.0 0.0 0.00 0.00 0.00 59 1015.2
20260506192531 19 269 0.0 0.0 0.00 0.00 0.00 60 1015.1
20260506192027 19 267 0.0 0.0 0.00 0.00 0.00 60 1015.3
20260506191526 18 303 0.0 0.0 0.00 0.00 0.00 60 1015.2
20260506191027 18 290 0.0 0.0 0.00 0.00 0.00 60 1015.2
20260506190524 18 281 0.0 0.0 0.00 0.00 0.00 60 1015.3
20260506190025 18 276 0.0 0.0 0.00 0.00 0.00 60 1015.2
20260506185525 18 298 0.0 0.0 0.00 0.00 0.00 60 1015.2
20260506185026 18 299 0.0 0.0 0.00 0.00 0.00 62 1015.2
20260506184525 18 264 0.0 0.0 0.00 0.00 0.00 61 1015.1
20260506184023 18 342 0.0 0.0 0.00 0.00 0.00 61 1015.4
20260506183523 18 300 0.0 0.0 0.00 0.00 0.00 61 1015.6
20260506183022 18 275 0.0 0.0 0.00 0.00 0.00 62 1015.6
20260506182521 18 300 0.0 0.0 0.00 0.00 0.00 63 1015.6
20260506182022 18 304 0.0 0.0 0.00 0.00 0.00 63 1015.7
20260506181519 18 290 0.0 0.0 0.00 0.00 0.00 64 1015.9
20260506181020 18 267 0.0 0.0 0.00 0.00 0.00 65 1016.0
20260506180519 18 294 0.0 0.0 0.00 0.00 0.00 64 1016.1
20260506180018 18 250 0.0 0.0 0.00 0.00 0.00 65 1016.1
20260506175517 18 309 0.0 0.0 0.00 0.00 0.00 64 1016.1
20260506175019 18 275 0.0 0.0 0.00 0.00 0.00 64 1016.0
20260506174516 17 287 0.0 0.0 0.00 0.00 0.00 64 1016.2
20260506174015 17 277 0.0 0.0 0.00 0.00 0.00 65 1016.1
20260506173515 17 288 0.0 0.0 0.00 0.00 0.00 64 1016.0
20260506173014 17 306 0.0 0.0 0.00 0.00 0.00 65 1015.9
20260506172514 17 277 0.0 0.0 0.00 0.00 0.00 65 1015.8
20260506172014 17 303 0.0 0.0 0.00 0.00 0.00 64 1015.5
20260506171513 17 266 0.0 0.0 0.00 0.00 0.00 65 1015.2
20260506171013 17 259 0.0 0.0 0.00 0.00 0.00 66 1015.0
20260506170511 17 259 0.0 0.0 0.00 0.00 0.00 66 1014.9
20260506170011 17 304 0.0 0.0 0.00 0.00 0.00 66 1014.9
20260506165513 17 296 0.0 0.0 0.00 0.00 0.00 67 1015.0
20260506165010 17 287 0.0 0.0 0.00 0.00 0.00 66 1015.0
20260506164509 17 252 0.0 0.0 0.00 0.00 0.00 67 1015.1
20260506164009 16 307 0.0 0.0 0.00 0.00 0.00 67 1015.2
20260506163507 16 279 0.0 0.0 0.00 0.00 0.00 67 1015.2
20260506163009 16 312 0.0 0.0 0.00 0.00 0.00 67 1015.4
20260506162508 16 300 0.0 0.0 0.00 0.00 0.00 67 1015.7
20260506162005 16 289 0.0 0.0 0.00 0.00 0.00 67 1015.4
20260506161506 16 242 0.0 0.0 0.00 0.00 0.00 67 1015.8
20260506161004 16 263 0.0 0.0 0.00 0.00 0.00 67 1015.9
20260506160507 16 292 0.0 0.0 0.00 0.00 0.00 67 1016.1
20260506160010 16 281 0.0 0.0 0.00 0.00 0.00 67 1016.2
20260506155503 16 254 0.0 0.0 0.00 0.00 0.00 67 1016.1
20260506155002 16 279 0.0 0.0 0.00 0.00 0.00 67 1016.1
20260506154503 16 258 0.0 0.0 0.00 0.00 0.00 67 1016.0
20260506154005 16 289 0.0 0.0 0.00 0.00 0.00 67 1015.8
20260506153502 16 237 0.0 0.0 0.00 0.00 0.00 67 1015.8
20260506153002 16 294 0.0 0.0 0.00 0.00 0.00 67 1015.9
20260506152600 16 223 0.0 0.0 0.00 0.00 0.00 67 1015.8
20260506152100 16 277 0.0 0.0 0.00 0.00 0.00 67 1015.7
20260506151601 16 302 0.0 0.0 0.00 0.00 0.00 67 1015.7
20260506151059 16 294 0.0 0.0 0.00 0.00 0.00 67 1015.6
20260506150559 16 304 0.0 0.0 0.00 0.00 0.00 67 1015.6
20260506145556 15 306 0.0 0.0 0.00 0.00 0.00 67 1015.9
20260506145056 15 261 0.0 0.0 0.00 0.00 0.00 67 1015.6
20260506144557 15 279 0.0 0.0 0.00 0.00 0.00 67 1015.7
20260506144056 15 309 0.0 0.0 0.00 0.00 0.00 67 1015.6
20260506143555 15 301 0.0 0.0 0.00 0.00 0.00 67 1015.7
20260506143105 15 308 0.0 0.0 0.00 0.00 0.00 67 1015.6
20260506142554 15 299 0.0 0.0 0.00 0.00 0.00 67 1015.6
20260506142052 15 259 0.0 0.0 0.00 0.00 0.00 67 1015.5
20260506141552 15 296 0.0 0.0 0.00 0.00 0.00 67 1015.4
20260506141055 15 255 0.0 0.0 0.00 0.00 0.00 67 1015.3
20260506140551 15 284 0.0 0.0 0.00 0.00 0.00 67 1015.2
20260506140054 15 308 0.0 0.0 0.00 0.00 0.00 67 1015.3
20260506135551 15 268 0.0 0.0 0.00 0.00 0.00 67 1015.3
20260506135049 15 306 0.0 0.0 0.00 0.00 0.00 67 1015.1
20260506134550 15 253 0.0 0.0 0.00 0.00 0.00 67 1015.1
20260506134049 15 236 0.0 0.0 0.00 0.00 0.00 67 1015.1
20260506133549 15 259 0.0 0.0 0.00 0.00 0.00 67 1015.0
20260506133049 15 244 0.0 0.0 0.00 0.00 0.00 67 1015.1
20260506132548 15 283 0.0 0.0 0.00 0.00 0.00 67 1015.0
20260506132048 15 279 0.0 0.0 0.00 0.00 0.00 67 1015.0
20260506131548 15 348 0.0 0.0 0.00 0.00 0.00 67 1014.8
20260506131047 15 261 0.0 0.0 0.00 0.00 0.00 67 1014.9
20260506130548 15 281 0.0 0.0 0.00 0.00 0.00 67 1014.8
20260506130047 15 290 0.0 0.0 0.00 0.00 0.00 67 1014.8
20260506125549 15 268 0.0 0.0 0.00 0.00 0.00 67 1014.8
20260506125050 15 238 0.0 0.0 0.00 0.00 0.00 67 1014.6
20260506124545 15 288 0.0 0.0 0.00 0.00 0.00 67 1014.6
20260506124045 15 272 0.0 0.0 0.00 0.00 0.00 67 1014.6
20260506123545 15 272 0.0 0.0 0.00 0.00 0.00 67 1014.5
20260506123044 15 281 0.0 0.0 0.00 0.00 0.00 67 1014.6
20260506122544 15 273 0.0 0.0 0.00 0.00 0.00 67 1014.6
20260506122044 15 250 0.0 0.0 0.00 0.00 0.00 67 1014.6
20260506121545 15 284 0.0 0.0 0.00 0.00 0.00 66 1014.5
20260506121044 15 260 0.0 0.0 0.00 0.00 0.00 67 1014.4
20260506120542 15 253 0.0 0.0 0.00 0.00 0.00 67 1014.5
20260506120045 15 252 0.0 0.0 0.00 0.00 0.00 67 1014.5
20260506115542 15 265 0.0 0.0 0.00 0.00 0.00 67 1014.4
20260506115042 15 271 0.0 0.0 0.00 0.00 0.00 67 1014.3
20260506114549 15 288 0.0 0.0 0.00 0.00 0.00 67 1014.3
20260506114044 15 293 0.0 0.0 0.00 0.00 0.00 67 1014.2
20260506113543 15 247 0.0 0.0 0.00 0.00 0.00 67 1014.2
20260506113041 15 297 0.0 0.0 0.00 0.00 0.00 67 1014.1
20260506112542 15 255 0.0 0.0 0.00 0.00 0.00 67 1014.2
20260506112038 15 223 0.0 0.0 0.00 0.00 0.00 67 1014.0
20260506111541 15 291 0.0 0.0 0.00 0.00 0.00 67 1014.1
20260506111038 15 279 0.0 0.0 0.00 0.00 0.00 67 1013.9
20260506110537 15 289 0.0 0.0 0.00 0.00 0.00 66 1013.9
20260506110037 15 313 0.0 0.0 0.00 0.00 0.00 67 1013.8
20260506105537 15 306 0.0 0.0 0.00 0.00 0.00 66 1013.7
20260506105036 15 287 0.0 0.0 0.00 0.00 0.00 66 1013.6
20260506104535 15 308 0.0 0.0 0.00 0.00 0.00 66 1013.6
20260506104034 15 278 0.0 0.0 0.00 0.00 0.00 66 1013.5
20260506103533 15 273 0.0 0.0 0.00 0.00 0.00 66 1013.3
20260506103033 15 300 0.0 0.0 0.00 0.00 0.00 66 1013.2
20260506102533 15 300 0.0 0.0 0.00 0.00 0.00 66 1013.2
20260506102034 15 281 0.0 0.0 0.00 0.00 0.00 66 1013.2
20260506101534 15 294 0.0 0.0 0.00 0.00 0.00 66 1013.2
20260506101032 15 272 0.0 0.0 0.00 0.00 0.00 66 1013.2
20260506100532 15 297 0.0 0.0 0.00 0.00 0.00 65 1013.1
20260506100032 15 309 0.0 0.0 0.00 0.00 0.00 65 1013.2
20260506095531 15 278 0.0 0.0 0.00 0.00 0.00 65 1013.1
20260506095031 15 251 0.0 0.0 0.00 0.00 0.00 66 1013.0
20260506094532 15 263 0.0 0.0 0.00 0.00 0.00 65 1013.0
20260506094030 15 238 0.0 0.0 0.00 0.00 0.00 65 1013.1
20260506093532 15 272 0.0 0.0 0.00 0.00 0.00 65 1013.0
20260506093031 15 281 0.0 0.0 0.00 0.00 0.00 65 1012.9
20260506092531 15 254 0.0 0.0 0.00 0.00 0.00 65 1013.0
20260506092030 15 207 0.0 0.0 0.00 0.00 0.00 65 1013.0
20260506091530 15 249 0.0 0.0 0.00 0.00 0.00 65 1013.0
20260506091030 15 264 0.0 0.0 0.00 0.00 0.00 65 1013.0
20260506090529 15 251 0.0 0.0 0.00 0.00 0.00 65 1013.0
20260506090028 15 207 0.0 0.0 0.00 0.00 0.00 65 1013.1
20260506085528 15 289 0.0 0.0 0.00 0.00 0.00 65 1013.0
20260506085028 15 234 0.0 0.0 0.00 0.00 0.00 65 1013.0
20260506084528 15 232 0.0 0.0 0.00 0.00 0.00 65 1013.1
20260506084031 15 261 0.0 0.0 0.00 0.00 0.00 65 1013.0
20260506083528 15 219 0.0 0.0 0.00 0.00 0.00 64 1013.0
20260506083027 15 232 0.0 0.0 0.00 0.00 0.00 64 1013.1
20260506082527 15 227 0.0 0.0 0.00 0.00 0.00 64 1013.1
20260506082027 15 250 0.0 0.0 0.00 0.00 0.00 64 1013.0
20260506081527 15 294 0.0 0.0 0.00 0.00 0.00 64 1013.1
20260506081027 15 278 0.0 0.0 0.00 0.00 0.00 64 1013.0
20260506080526 15 202 0.0 0.0 0.00 0.00 0.00 64 1013.0
20260506073524 15 215 0.0 0.0 0.00 0.00 0.00 64 1012.8
20260506073023 15 292 0.0 0.0 0.00 0.00 0.00 65 1012.8
20260506072523 15 292 0.0 0.0 0.00 0.00 0.00 65 1012.8
20260506072022 15 286 0.0 0.0 0.00 0.00 0.00 65 1012.8
20260506071529 15 286 0.0 0.0 0.00 0.00 0.00 64 1012.8
20260506071022 15 258 0.0 0.0 0.00 0.00 0.00 64 1012.8
20260506070520 15 274 0.0 0.0 0.00 0.00 0.00 64 1012.8
20260506062018 15 273 0.0 0.0 0.00 0.00 0.00 64 1012.5
20260506061521 15 246 0.0 0.0 0.00 0.00 0.00 64 1012.4
20260506061018 15 250 0.0 0.0 0.00 0.00 0.00 64 1012.5
20260506060519 15 297 0.0 0.0 0.00 0.00 0.00 65 1012.4
20260506051012 15 299 0.0 0.0 0.00 0.00 0.00 63 1011.7
20260506050516 15 303 0.0 0.0 0.00 0.00 0.00 63 1011.5
20260506045011 15 291 0.0 0.0 0.00 0.00 0.00 63 1011.4
20260506044510 15 312 0.0 0.0 0.00 0.00 0.00 63 1011.4
20260506044016 15 269 0.0 0.0 0.00 0.00 0.00 64 1011.3
20260506043510 15 290 0.0 0.0 0.00 0.00 0.00 64 1011.1
20260506043010 15 283 0.0 0.0 0.00 0.00 0.00 64 1011.2
20260506042510 15 294 0.0 0.0 0.00 0.00 0.00 65 1011.3
20260506042013 15 275 0.0 0.0 0.00 0.00 0.00 65 1011.3
20260506041509 15 257 0.0 0.0 0.00 0.00 0.00 65 1011.2
20260506041012 15 249 0.0 0.0 0.00 0.00 0.00 66 1011.1
20260506040509 15 275 0.0 0.0 0.00 0.00 0.00 66 1011.1
20260506040030 15 259 0.0 0.0 0.00 0.00 0.00 66 1011.0
20260506035509 16 257 0.0 0.0 0.00 0.00 0.00 66 1010.7
20260506035009 16 271 0.0 0.0 0.00 0.00 0.00 66 1010.8
20260506034509 16 257 0.0 0.0 0.00 0.00 0.00 66 1010.6
20260506034009 16 242 0.0 0.0 0.00 0.00 0.00 67 1010.6
20260506033508 16 290 0.0 0.0 0.00 0.00 0.00 67 1010.6
20260506033008 16 286 0.0 0.0 0.00 0.00 0.00 67 1010.5
20260506032508 16 271 0.0 0.0 0.00 0.00 0.00 67 1010.6
20260506032009 16 267 0.0 0.0 0.00 0.00 0.00 67 1010.5
20260506031519 16 292 0.0 0.0 0.00 0.00 0.00 67 1010.4
20260506031011 17 281 0.0 0.0 0.00 0.00 0.00 66 1010.4
20260506030506 17 251 0.0 0.0 0.00 0.00 0.00 66 1010.2
20260506030007 17 254 0.0 0.0 0.00 0.00 0.00 66 1010.2
20260506025506 17 294 0.0 0.0 0.00 0.00 0.00 66 1010.1
20260506025006 17 287 0.0 0.0 0.00 0.00 0.00 65 1010.0
20260506024516 18 296 0.0 0.0 0.00 0.00 0.00 65 1010.0
20260506024006 18 288 0.0 0.0 0.00 0.00 0.00 64 1010.0
20260506023506 18 290 0.0 0.0 0.00 0.00 0.00 64 1010.0
20260506023006 18 285 0.0 0.0 0.00 0.00 0.00 64 1010.1
20260506022506 18 296 0.0 0.0 0.00 0.00 0.00 63 1010.0
20260506022005 18 269 0.0 0.0 0.00 0.00 0.00 63 1009.9
20260506021506 18 288 0.0 0.0 0.00 0.00 0.00 63 1010.0
20260506021005 18 278 0.0 0.0 0.00 0.00 0.00 62 1010.0
20260506020511 19 265 0.0 0.0 0.00 0.00 0.00 62 1010.0
20260506020005 19 289 0.0 0.0 0.00 0.00 0.00 62 1009.9
20260506015504 19 294 0.0 0.0 0.00 0.00 0.00 61 1009.9
20260506015004 20 279 0.0 0.0 0.00 0.00 0.00 61 1009.9
20260506014503 20 304 0.0 0.0 0.00 0.00 0.00 60 1009.9
20260506014003 20 288 0.0 0.0 0.00 0.00 0.00 58 1009.8
20260506013507 21 275 0.0 0.0 0.00 0.00 0.00 57 1009.8
20260506013003 21 279 0.0 0.0 0.00 0.00 0.00 57 1009.8
20260506012503 21 269 0.0 0.0 0.00 0.00 0.00 57 1009.9
20260506012004 21 288 0.0 0.0 0.00 0.00 0.00 55 1009.8
20260506011503 21 262 0.0 0.0 0.00 0.00 0.00 56 1009.8
20260506011002 22 261 0.0 0.0 0.00 0.00 0.00 54 1009.7
20260506010502 22 266 0.0 0.0 0.00 0.00 0.00 53 1009.8
20260506010005 22 268 0.0 0.0 0.00 0.00 0.00 54 1009.8
20260506005501 22 249 0.0 0.0 0.00 0.00 0.00 54 1009.9
20260506005001 22 259 0.0 0.0 0.00 0.00 0.00 54 1009.9
20260506004501 22 261 0.0 0.0 0.00 0.00 0.00 56 1009.9
20260506004001 21 267 0.0 0.0 0.00 0.00 0.00 56 1009.8
20260506003503 21 267 0.0 0.0 0.00 0.00 0.00 55 1009.9
20260506003001 21 288 0.0 0.0 0.00 0.00 0.00 55 1009.8
20260506002500 21 288 0.0 0.0 0.00 0.00 0.00 57 1009.9
20260506002100 21 267 0.0 0.0 0.00 0.00 0.00 58 1009.8
20260506001600 21 277 0.0 0.0 0.00 0.00 0.00 57 1009.8
20260506001101 21 267 0.0 0.0 0.00 0.00 0.00 57 1009.8
20260506000600 21 273 0.0 0.0 0.00 0.00 0.00 57 1009.8
20260505235559 21 298 0.0 0.0 0.00 0.00 0.00 56 1010.0
20260505235101 22 290 0.0 0.0 0.00 0.00 0.00 56 1010.1
20260505234605 22 266 0.0 0.0 0.00 0.00 0.00 56 1010.1
20260505234058 22 286 0.0 0.0 0.00 0.00 0.00 57 1010.1
20260505233602 22 286 0.0 0.0 0.00 0.00 0.00 56 1010.2
20260505233111 22 299 0.0 0.0 0.00 0.00 0.00 56 1010.2
20260505232558 22 293 0.0 0.0 0.00 0.00 0.00 56 1010.2
20260505232058 22 283 0.0 0.0 0.00 0.00 0.00 55 1010.2
20260505231605 22 319 0.0 0.0 0.00 0.00 0.00 55 1010.2
20260505231101 22 294 0.0 0.0 0.00 0.00 0.00 55 1010.2
20260505230556 22 275 0.0 0.0 0.00 0.00 0.00 56 1010.2
20260505230056 22 263 0.0 0.0 0.00 0.00 0.00 56 1010.3
20260505225556 21 284 0.0 0.0 0.00 0.00 0.00 58 1010.3
20260505225056 21 296 0.0 0.0 0.00 0.00 0.00 56 1010.4
20260505224556 21 294 0.0 0.0 0.00 0.00 0.00 56 1010.3
20260505224055 22 281 0.0 0.0 0.00 0.00 0.00 56 1010.4
20260505223555 21 259 0.0 0.0 0.00 0.00 0.00 56 1010.3
20260505223057 22 284 0.0 0.0 0.00 0.00 0.00 56 1010.4
20260505222555 22 284 0.0 0.0 0.00 0.00 0.00 56 1010.4
20260505222055 22 310 0.0 0.0 0.00 0.00 0.00 56 1010.4
20260505221555 22 273 0.0 0.0 0.00 0.00 0.00 56 1010.5
20260505221053 22 300 0.0 0.0 0.00 0.00 0.00 56 1010.5
20260505220557 22 298 0.0 0.0 0.00 0.00 0.00 55 1010.4
20260505220052 21 257 0.0 0.0 0.00 0.00 0.00 57 1010.5
20260505215551 21 284 0.0 0.0 0.00 0.00 0.00 56 1010.5
20260505215051 21 259 0.0 0.0 0.00 0.00 0.00 58 1010.6
20260505214555 21 260 0.0 0.0 0.00 0.00 0.00 57 1010.7
20260505214051 21 278 0.0 0.0 0.00 0.00 0.00 57 1010.8
20260505213550 21 292 0.0 0.0 0.00 0.00 0.00 56 1010.8
20260505213052 21 271 0.0 0.0 0.00 0.00 0.00 58 1010.8
20260505212550 21 292 0.0 0.0 0.00 0.00 0.00 56 1010.9
20260505212049 21 279 0.0 0.0 0.00 0.00 0.00 58 1010.9
20260505211556 21 298 0.0 0.0 0.00 0.00 0.00 58 1010.8
20260505211051 21 274 0.0 0.0 0.00 0.00 0.00 57 1010.9
20260505210547 21 293 0.0 0.0 0.00 0.00 0.00 58 1010.9
20260505210047 21 304 0.0 0.0 0.00 0.00 0.00 57 1011.0
20260505205546 21 295 0.0 0.0 0.00 0.00 0.00 58 1011.0
20260505205049 21 242 0.0 0.0 0.00 0.00 0.00 58 1011.0
20260505204547 21 270 0.0 0.0 0.00 0.00 0.00 60 1011.0
20260505204044 20 275 0.0 0.0 0.00 0.00 0.00 59 1011.1
20260505203548 20 294 0.0 0.0 0.00 0.00 0.00 58 1011.0
20260505203047 20 284 0.0 0.0 0.00 0.00 0.00 57 1011.0
20260505202546 20 282 0.0 0.0 0.00 0.00 0.00 58 1011.1
20260505202047 20 279 0.0 0.0 0.00 0.00 0.00 58 1011.1